Retour au catalogue

STARLINK-33865

ActifCommunicationsVLEO
NORAD 64247·PAYLOAD·🇺🇸 United States

Lancé Jun 3, 2025 depuis Cape Canaveral Space Force Station

Loading…

Prochains Passages (prochaines 24 heures)

TLE

FraisSource: CelesTrak SupGP

Époque: Sep 15, 2026, 02:46 UTC

1 64247C 25119Q   26258.11576389  .00044899  00000+0  16261-2 0  2583
2 64247  43.0010 316.9787 0001403 265.8844  70.1083 15.27558677    12

Suivez STARLINK-33865 en temps réel avec AllMySat

Download on the App Store